Temperature
15 15 14 14 13 13 13 12 12 12 12 12 11 11 11 11 11 11 11 11 11 12 12 12 12 12 13 13 13 13 13 13 13 14 14 15 15 15 16 16 16 16 16
15 15 14 14 13 13 13 13 12 12 12 11 11 11 11 11 11 11 11 11 11 11 12 12 12 12 12 12 12 13 13 13 13 13 14 14 15 15 15 15 16 16 16
16 15 15 14 14 13 13 13 12 12 12 12 11 11 11 11 11 11 11 11 11 11 11 12 12 12 12 12 12 12 12 13 12 13 13 14 14 14 15 15 15 15 15
16 16 15 15 14 14 13 13 13 12 12 12 12 11 11 11 11 11 11 11 11 11 11 11 12 12 12 12 12 12 12 12 12 12 13 13 14 14 14 14 15 15 15
17 16 16 15 15 14 14 14 13 13 12 12 12 12 11 11 11 11 11 11 11 11 12 11 11 11 11 11 11 12 12 12 12 12 13 13 13 13 14 14 14 14 15
17 17 16 16 16 15 15 14 14 13 13 13 12 12 12 11 11 11 11 11 11 11 12 12 12 12 11 11 11 11 11 12 12 12 12 12 13 13 13 13 13 14 14
17 17 17 16 16 16 15 15 14 14 13 13 13 12 12 12 11 11 11 11 11 11 11 11 12 11 11 11 11 11 11 11 11 11 12 12 12 13 13 13 13 13 13
17 17 17 17 16 16 16 15 15 14 14 14 13 13 12 12 12 12 11 11 11 11 11 11 11 11 11 11 11 12 12 12 12 12 12 12 12 12 12 12 12 12 13
18 17 17 17 17 16 16 16 15 15 14 14 14 13 13 13 12 12 12 12 11 11 11 11 11 11 11 11 11 12 12 12 12 12 12 12 12 12 12 12 12 12 12
18 18 17 17 17 16 16 16 15 15 15 14 14 14 13 13 13 12 12 12 12 12 12 12 11 11 11 11 11 11 12 12 12 12 12 12 12 12 12 12 12 12 12
17 17 17 16 16 16 16 15 15 15 15 15 14 14 14 13 13 13 12 12 12 12 12 12 12 11 11 11 11 11 11 11 12 12 12 12 12 12 12 12 12 12 12
17 17 16 16 16 15 15 15 15 15 15 15 14 14 14 14 13 13 13 12 12 12 12 12 12 11 11 11 11 11 11 11 11 11 12 12 12 12 12 12 12 12 12
16 16 16 15 15 15 14 14 14 14 14 14 14 14 14 14 14 13 13 13 12 12 12 12 12 11 11 11 11 11 11 11 11 11 11 11 11 11 11 12 12 12 12
16 15 15 15 14 14 14 14 14 14 14 14 14 14 14 14 14 13 13 13 13 12 12 12 12 12 11 11 11 11 11 11 11 11 11 11 11 11 11 11 11 11 11
15 15 14 14 13 13 13 13 12 12 12 12 13 13 13 13 13 13 13 13 13 12 12 12 12 11 11 11 11 11 11 11 11 11 11 11 11 11 11 11 11 11 11
14 13 13 12 12 12 12 12 12 12 12 12 12 12 12 13 13 13 13 13 12 12 12 11 11 11 11 11 11 11 11 11 11 11 11 11 11 11 11 11 11 11 11
12 12 11 11 11 10 10 11 11 11 11 11 11 11 12 12 12 13 13 12 12 11 11 11 11 11 11 11 11 11 11 11 10 10 11 11 11 11 11 10 10 10 10
11 10 10 9 9 9 9 9 9 9 10 10 10 10 11 11 11 12 12 11 11 11 10 10 10 10 10 10 10 10 10 10 10 10 10 10 10 10 10 10 10 10 10
10 9 9 8 8 8 8 8 8 8 8 8 9 9 9 9 10 10 10 10 9 9 9 9 10 10 10 10 10 10 10 10 10 10 10 10 10 10 10 10 10 10 10
9 8 8 8 8 8 7 7 7 7 7 7 7 7 8 8 9 8 8 8 8 8 8 8 8 8 9 9 9 9 10 10 10 10 10 10 10 10 10 10 10 10 10
8 8 7 7 7 7 7 7 6 6 6 6 6 6 6 6 6 6 6 6 6 7 7 7 7 7 8 8 8 8 9 9 9 9 9 9 9 10 10 10 10 10 10
7 7 7 7 7 6 6 6 6 6 6 6 6 6 6 5 5 5 5 5 5 5 5 5 5 6 6 6 6 7 7 7 8 8 8 8 9 9 9 10 10 10 10
7 7 7 6 6 6 6 6 6 5 5 5 5 5 5 5 5 4 4 4 4 4 4 4 4 4 4 5 5 5 5 5 6 6 7 7 8 8 8 9 9 10 10
7 6 6 6 6 6 6 5 5 5 5 5 5 4 4 4 4 4 4 4 4 4 3 3 3 3 4 4 4 4 4 4 4 5 5 6 6 7 8 8 8 9 9
6 6 6 6 6 5 5 5 5 5 4 4 4 4 4 4 4 3 3 3 3 3 3 3 3 3 3 3 3 3 3 3 3 3 4 4 5 6 6 7 7 8 9
6 6 5 5 5 5 5 5 4 4 4 4 4 4 3 3 3 3 3 3 3 2 2 2 2 2 2 2 2 2 2 2 2 3 3 3 4 4 5 5 6 7 7
Wind_Speed
6 5 3 3 3 2 2 2 2 2 3 3 3 3 3 3 3 3 4 5 6 6 6 6 6 5 4 3 2 2 3 4 6 4 3 3 4 5 4 7 10 11 14
6 5 4 3 3 3 3 2 2 1 2 3 2 3 2 2 2 3 4 4 5 6 7 6 7 6 5 4 2 3 3 4 4 6 4 3 4 5 5 5 6 9 10
6 5 4 3 3 4 4 3 2 1 2 2 2 2 2 2 2 2 2 4 5 6 6 6 6 6 5 4 4 3 3 3 3 4 4 3 3 3 3 4 5 5 7
7 6 5 5 5 5 4 3 3 2 1 2 2 2 2 2 2 2 3 4 5 6 6 6 6 5 5 5 4 4 3 3 3 3 4 3 3 3 3 4 4 4 6
7 7 7 6 5 5 4 4 3 3 3 3 3 4 3 3 4 4 4 5 6 7 7 7 7 8 8 5 4 4 3 3 3 3 4 3 3 3 3 3 4 4 4
8 8 7 6 6 6 5 5 4 4 4 3 4 4 5 4 6 7 5 4 5 6 7 7 7 6 7 8 8 6 4 4 4 4 4 5 5 4 4 4 3 3 4
7 7 7 7 7 7 6 5 5 5 4 5 5 5 6 8 10 9 8 4 5 6 6 6 6 6 6 5 7 8 7 7 6 5 6 7 5 5 4 5 5 5 5
6 6 6 7 8 7 6 6 6 5 5 5 6 6 6 8 10 10 8 4 4 6 6 6 5 6 6 6 5 5 6 6 6 5 6 7 7 7 6 6 6 5 4
5 6 6 7 7 7 7 8 6 5 6 6 6 7 7 9 11 10 8 3 4 6 6 5 5 5 8 8 4 6 7 7 7 8 9 10 11 12 8 5 5 5 5
5 5 5 5 6 7 8 8 6 6 7 7 7 7 8 9 11 11 9 3 4 5 5 6 7 7 9 9 5 5 8 8 7 8 8 8 7 8 9 8 7 6 4
3 2 2 3 4 6 6 5 6 6 6 6 7 7 7 9 11 12 10 6 5 5 5 5 5 9 10 11 8 6 10 10 7 7 7 7 6 5 5 5 6 7 7
1 1 1 2 3 3 4 5 5 5 6 7 6 7 6 7 9 10 12 12 9 6 6 5 6 10 12 12 9 10 13 10 5 6 6 6 5 5 4 4 5 6 7
4 3 3 4 4 4 4 5 5 4 4 5 5 6 7 6 6 11 12 12 12 7 6 9 10 12 12 10 11 13 10 5 4 5 6 6 5 5 4 3 4 4 4
5 5 5 5 6 6 5 4 4 4 4 4 5 6 6 5 5 5 5 6 8 7 6 7 9 10 9 9 9 7 5 5 5 5 6 5 4 3 3 3 3 3 3
6 5 6 5 5 6 6 4 4 4 3 3 4 4 4 6 8 8 5 5 5 5 3 2 3 4 5 5 5 6 5 4 4 4 5 5 5 4 4 3 3 3 4
6 5 5 5 5 5 6 6 7 7 10 10 8 6 4 7 10 7 6 7 6 4 2 2 4 5 6 6 6 6 5 5 5 5 5 5 5 5 5 3 3 3 4
5 4 4 5 5 6 6 6 7 8 12 14 15 16 13 12 11 7 4 2 1 1 1 4 5 6 6 6 6 6 6 6 5 5 6 6 5 5 5 4 4 4 4
5 6 5 4 5 5 5 5 5 6 7 8 10 16 17 15 14 12 8 5 4 3 3 5 6 6 6 7 7 7 7 7 5 5 6 6 6 6 5 5 5 5 5
5 4 4 4 4 5 5 5 5 6 6 6 7 10 14 12 12 13 10 6 5 5 5 5 6 6 7 7 7 7 7 7 7 6 5 6 6 6 7 7 6 7 7
4 8 6 4 4 5 5 5 5 5 6 6 7 7 8 9 9 9 8 7 6 7 7 7 7 8 8 8 8 8 7 7 7 6 6 6 6 6 8 8 7 7 7
4 5 7 5 4 3 3 4 4 4 4 5 5 6 9 6 6 7 6 7 7 7 7 7 7 8 8 8 9 9 10 8 8 8 7 7 6 7 8 8 8 8 7
3 3 3 3 3 3 3 3 3 3 4 4 4 4 7 4 4 4 4 4 4 4 4 5 5 6 7 7 8 9 9 9 10 10 10 10 9 8 8 8 8 8 7
3 3 3 2 2 3 3 3 3 3 3 3 3 3 4 3 3 3 3 3 3 4 4 4 4 4 5 4 4 5 6 8 8 10 10 10 10 10 9 9 9 9 10
2 2 2 2 2 2 2 3 3 3 3 4 4 4 4 4 4 5 5 5 5 5 4 4 5 6 7 5 3 3 3 4 6 7 10 10 11 10 10 10 10 11 11
1 1 1 1 2 2 2 3 3 4 4 4 4 5 5 5 5 6 6 6 6 6 7 7 6 6 8 9 7 6 8 9 8 7 7 8 10 11 11 11 10 11 11
1 1 1 2 2 2 2 3 4 5 5 5 5 5 6 6 6 6 6 6 7 7 8 7 9 10 11 10 11 13 13 13 12 10 7 7 9 10 11 10 13 11 12
Wind_Direction
208 210 213 230 235 220 224 254 266 299 322 335 340 350 359 3 4 12 358 359 357 343 341 341 329 317 306 300 280 243 224 213 244 266 256 257 244 246 239 225 225 222 221
207 207 213 217 207 206 218 236 240 299 325 339 358 5 357 357 356 2 351 356 349 336 330 332 329 333 320 303 290 268 249 230 231 260 270 263 250 244 237 233 227 224 223
200 204 207 200 198 206 213 225 229 259 321 346 5 350 331 323 327 330 328 330 327 319 316 316 314 324 319 307 296 279 268 264 239 249 267 261 262 254 247 243 233 228 225
196 201 210 212 208 210 212 221 228 236 267 291 287 285 283 275 273 286 304 313 317 315 312 307 303 299 291 291 287 276 275 281 273 264 269 270 262 259 234 237 240 225 226
194 205 217 217 211 207 211 223 230 242 248 258 271 283 285 269 249 254 281 297 309 314 315 312 306 306 303 299 289 269 261 268 278 273 274 274 269 258 244 235 238 237 233
200 213 218 211 208 210 215 221 231 248 261 265 267 271 277 273 271 266 267 280 297 305 310 313 313 313 328 333 327 312 272 251 257 262 266 264 265 255 251 246 240 235 247
210 219 217 210 212 219 218 217 232 244 250 259 263 260 263 269 274 276 276 269 280 291 297 305 315 320 329 321 319 320 313 296 269 249 254 257 259 249 244 248 238 233 238
214 223 221 215 220 225 224 230 237 237 240 246 253 254 257 266 268 268 272 267 273 284 287 290 294 302 306 311 309 312 306 301 291 274 250 257 259 257 241 240 243 250 256
221 228 226 216 220 225 229 236 236 233 241 241 245 247 251 265 267 262 258 246 270 284 289 289 290 290 299 313 306 304 305 302 296 288 275 272 271 271 256 236 232 235 252
240 235 228 215 217 228 235 239 236 230 240 245 250 246 245 256 264 260 246 218 256 276 288 288 290 290 297 307 293 289 294 295 301 306 302 296 283 279 265 232 223 228 236
266 244 241 238 238 243 249 249 246 245 250 252 257 260 253 251 262 260 240 209 228 255 273 281 283 295 299 300 295 274 274 283 287 288 292 291 286 276 264 241 224 222 229
31 30 324 296 286 290 274 276 270 260 262 264 266 275 269 259 255 258 246 226 219 223 249 260 272 290 297 298 295 283 285 289 279 285 288 286 283 277 270 265 247 238 239
50 22 350 341 332 325 312 303 300 286 270 272 269 273 280 274 265 259 253 240 229 224 243 257 271 285 297 297 292 293 295 281 273 278 279 279 271 268 274 279 272 253 248
52 26 10 2 349 343 335 323 316 308 298 290 284 278 280 284 276 266 255 248 239 240 252 271 285 290 289 283 291 294 279 259 256 263 272 274 275 278 276 273 270 267 263
53 33 19 13 4 352 346 333 326 309 310 301 294 281 283 289 281 254 226 230 227 232 239 277 293 303 305 304 301 294 286 275 263 257 262 275 282 280 274 264 259 254 252
52 31 20 11 4 0 355 351 351 360 3 11 5 352 323 310 312 298 255 240 232 211 186 272 287 290 291 293 297 299 294 279 266 258 258 260 268 274 275 267 255 259 260
59 37 23 18 14 9 10 12 2 357 11 21 19 16 12 5 3 356 334 300 330 117 283 289 291 292 292 291 287 285 286 281 269 256 255 256 256 260 262 261 256 259 259
52 43 43 27 21 18 16 14 17 17 13 8 6 10 13 16 20 22 26 43 25 19 331 313 312 309 304 299 295 291 288 286 276 261 256 256 252 251 254 253 250 251 255
49 40 42 33 28 24 21 23 24 25 22 12 9 9 11 16 27 32 36 36 18 2 350 338 328 322 316 311 304 300 295 289 281 270 260 255 252 247 251 251 248 247 244
44 50 60 47 32 27 25 27 26 24 23 21 20 11 6 22 29 24 25 23 18 8 1 356 351 349 345 338 329 320 313 307 300 287 275 265 255 248 250 250 246 244 240
51 38 46 47 32 27 27 24 22 24 22 18 11 11 21 28 24 18 18 16 13 8 2 1 358 353 351 349 348 346 343 340 336 329 316 298 279 264 255 248 244 240 238
66 47 37 34 22 19 17 13 15 16 12 9 351 357 13 22 12 6 0 356 352 348 344 348 350 349 352 357 358 357 358 356 351 345 335 325 310 290 273 259 248 240 234
63 44 29 18 13 8 11 1 356 350 344 339 335 339 347 347 339 332 322 313 312 311 310 313 319 323 328 329 341 352 354 350 344 338 336 331 324 313 298 277 259 246 237
60 40 15 354 355 355 343 335 331 326 322 318 315 310 307 306 303 300 294 289 288 287 284 282 283 290 299 300 294 293 300 313 325 328 329 325 323 319 312 301 283 260 245
47 13 350 333 331 324 319 319 318 314 311 307 304 302 301 299 296 294 291 286 286 285 284 281 273 275 278 280 277 271 274 283 294 311 314 317 317 317 316 309 302 289 266
348 319 302 297 298 294 294 301 304 307 306 306 305 302 300 298 295 293 291 288 288 286 285 283 276 274 275 276 275 274 274 274 279 287 293 301 307 307 310 307 304 300 287
Height
1512 1511 1510 1509 1508 1506 1505 1504 1502 1500 1499 1497 1495 1493 1492 1490 1488 1486 1484 1483 1481 1480 1479 1478 1477 1476 1476 1476 1476 1476 1476 1476 1475 1474 1475 1476 1477 1478 1479 1481 1482 1484 1486
1511 1510 1509 1508 1507 1505 1504 1502 1501 1499 1497 1496 1494 1492 1490 1488 1486 1485 1483 1481 1479 1478 1476 1475 1474 1474 1473 1472 1472 1472 1472 1472 1472 1470 1471 1471 1472 1473 1474 1475 1476 1478 1480
1510 1509 1508 1507 1505 1504 1502 1501 1499 1497 1496 1494 1492 1491 1489 1487 1485 1483 1481 1479 1477 1476 1474 1473 1472 1471 1470 1469 1469 1469 1468 1468 1468 1467 1466 1467 1467 1468 1468 1469 1470 1472 1474
1508 1508 1507 1506 1504 1503 1501 1500 1498 1496 1494 1493 1491 1489 1487 1485 1483 1481 1479 1477 1475 1474 1472 1471 1469 1468 1467 1467 1466 1466 1465 1465 1464 1463 1462 1462 1462 1463 1463 1464 1465 1466 1468
1507 1506 1505 1504 1503 1502 1500 1499 1497 1495 1493 1492 1490 1488 1486 1483 1481 1479 1477 1475 1473 1472 1470 1469 1467 1466 1465 1464 1463 1463 1462 1461 1460 1459 1459 1458 1458 1458 1459 1459 1460 1461 1462
1505 1504 1504 1503 1502 1501 1499 1498 1496 1494 1493 1491 1489 1487 1485 1482 1480 1478 1476 1474 1472 1470 1469 1467 1466 1464 1463 1462 1461 1460 1459 1458 1457 1456 1455 1454 1454 1454 1454 1454 1455 1455 1456
1503 1502 1502 1501 1500 1499 1498 1497 1495 1493 1491 1489 1487 1485 1483 1481 1479 1477 1475 1473 1471 1469 1467 1465 1464 1462 1461 1460 1458 1457 1456 1455 1454 1453 1452 1451 1450 1450 1450 1450 1450 1450 1450
1500 1500 1499 1499 1498 1497 1496 1495 1493 1491 1489 1488 1486 1484 1482 1480 1478 1475 1473 1471 1469 1467 1465 1463 1462 1460 1459 1457 1456 1455 1453 1452 1451 1449 1448 1447 1446 1445 1445 1445 1445 1445 1445
1497 1497 1497 1496 1495 1494 1493 1492 1490 1489 1487 1485 1483 1482 1479 1477 1476 1473 1472 1469 1468 1466 1463 1461 1459 1458 1456 1455 1453 1451 1450 1449 1447 1446 1444 1443 1442 1441 1440 1440 1440 1440 1439
1494 1494 1494 1493 1492 1491 1490 1489 1487 1485 1484 1482 1481 1479 1477 1475 1473 1471 1469 1467 1465 1463 1462 1459 1457 1455 1454 1452 1450 1448 1446 1445 1443 1441 1440 1439 1437 1436 1435 1435 1435 1435 1435
1491 1491 1490 1490 1489 1487 1486 1485 1483 1481 1480 1478 1477 1475 1474 1472 1470 1468 1467 1464 1463 1461 1459 1457 1455 1453 1451 1449 1447 1445 1443 1441 1439 1437 1435 1434 1433 1431 1430 1430 1429 1430 1429
1488 1488 1487 1486 1485 1483 1482 1480 1479 1477 1475 1474 1472 1471 1470 1468 1467 1465 1463 1461 1459 1457 1456 1454 1452 1450 1448 1446 1444 1442 1440 1438 1436 1434 1432 1430 1429 1427 1426 1425 1424 1424 1423
1485 1484 1483 1482 1480 1479 1477 1475 1473 1472 1470 1468 1467 1465 1464 1463 1462 1461 1459 1457 1455 1454 1452 1451 1449 1447 1445 1443 1441 1439 1437 1435 1433 1431 1429 1427 1425 1424 1422 1421 1420 1419 1418
1481 1480 1479 1477 1476 1474 1472 1471 1469 1467 1465 1463 1462 1460 1459 1458 1457 1455 1454 1453 1451 1450 1448 1447 1445 1444 1442 1440 1438 1436 1434 1432 1430 1428 1426 1424 1422 1420 1419 1417 1416 1415 1414
1478 1476 1475 1473 1471 1470 1468 1467 1465 1463 1461 1459 1457 1456 1454 1453 1452 1451 1449 1448 1447 1446 1444 1443 1442 1440 1438 1436 1434 1433 1431 1429 1427 1426 1424 1422 1420 1417 1416 1414 1413 1411 1410
1474 1473 1472 1470 1468 1466 1465 1464 1462 1461 1459 1456 1454 1452 1450 1449 1447 1446 1445 1444 1443 1442 1441 1439 1438 1436 1434 1432 1430 1429 1427 1426 1424 1422 1421 1419 1417 1415 1413 1411 1410 1408 1407
1472 1471 1469 1468 1466 1464 1462 1460 1459 1458 1456 1454 1452 1449 1447 1445 1443 1442 1441 1440 1439 1438 1437 1436 1434 1433 1431 1429 1427 1425 1423 1422 1420 1419 1417 1416 1414 1412 1410 1408 1407 1405 1404
1470 1469 1468 1467 1465 1463 1462 1460 1458 1455 1453 1451 1450 1448 1445 1443 1441 1439 1438 1437 1435 1434 1433 1432 1430 1429 1427 1425 1423 1421 1420 1418 1416 1415 1413 1412 1410 1409 1407 1405 1404 1403 1401
1468 1468 1467 1466 1465 1463 1461 1459 1457 1455 1453 1451 1448 1446 1444 1442 1440 1438 1436 1434 1433 1431 1430 1429 1427 1425 1423 1421 1419 1417 1415 1414 1412 1411 1409 1408 1406 1405 1403 1402 1400 1399 1398
1467 1467 1466 1465 1464 1462 1461 1459 1457 1455 1453 1450 1448 1446 1444 1441 1439 1437 1435 1433 1431 1430 1428 1426 1424 1422 1419 1417 1415 1413 1411 1409 1408 1406 1404 1403 1402 1400 1399 1397 1396 1395 1394
1466 1466 1465 1464 1463 1462 1460 1459 1457 1455 1453 1451 1449 1447 1444 1442 1439 1437 1435 1433 1431 1428 1426 1424 1421 1419 1416 1413 1411 1409 1406 1404 1403 1400 1399 1397 1396 1395 1393 1392 1391 1390 1389
1465 1464 1464 1463 1462 1461 1460 1458 1457 1455 1453 1451 1449 1447 1445 1442 1439 1437 1435 1433 1430 1428 1425 1423 1420 1417 1414 1411 1408 1405 1402 1400 1397 1395 1393 1391 1390 1388 1387 1386 1385 1384 1384
1463 1463 1462 1462 1461 1460 1459 1457 1456 1454 1452 1450 1448 1445 1443 1441 1439 1436 1434 1431 1429 1426 1423 1421 1418 1414 1411 1408 1405 1402 1399 1396 1393 1390 1388 1386 1384 1382 1381 1380 1379 1378 1377
1462 1461 1461 1460 1459 1458 1457 1455 1454 1452 1450 1448 1446 1443 1441 1439 1436 1434 1431 1429 1426 1423 1420 1417 1414 1411 1408 1405 1402 1399 1395 1392 1389 1386 1383 1380 1378 1376 1374 1373 1372 1371 1370
1459 1459 1458 1458 1457 1456 1454 1453 1451 1449 1447 1445 1442 1440 1438 1435 1433 1430 1427 1424 1421 1418 1416 1413 1410 1407 1403 1400 1397 1394 1391 1387 1384 1381 1377 1374 1371 1369 1367 1365 1364 1363 1363
1457 1456 1456 1455 1454 1453 1451 1450 1448 1446 1443 1441 1439 1436 1433 1431 1428 1425 1422 1419 1416 1412 1409 1406 1403 1400 1397 1393 1390 1387 1384 1381 1378 1374 1371 1368 1364 1361 1359 1357 1356 1355 1354